Regional Weather Roundup
Issued by NWS Cleveland, OH

Home | Current Version | Previous Version | Text Only | Print | Product List | Glossary Off
Versions: 1 2 3 4 5 6 7 8 9 10 11 12 13 14 15 16 17 18 19 20 21 22 23 24 25 26 27 28 29 30 31 32 33 34 35 36 37 38 39 40 41 42 43 44 45 46 47 48 49 50

000
ASUS41 KCLE 021800
RWRCLE
OHIO REGIONAL WEATHER ROUNDUP
NATIONAL WEATHER SERVICE WILMINGTON, OH
100 PM EST FRI DEC 02 2016

NOTE: "FAIR" INDICATES FEW OR NO CLOUDS BELOW 12,000 FEET WITH NO
SIGNIFICANT WEATHER AND/OR OBSTRUCTIONS TO VISIBILITY.

OHZ001>008-015>018-024>027-034-035-043-044-021900-
   NORTHWEST OHIO

CITY           SKY/WX    TMP DP  RH WIND       PRES   REMARKS
DEFIANCE       CLOUDY    41  31  67 W10G17    30.11S
FINDLAY        CLOUDY    41  32  70 W20G25    30.09S
TOLEDO EXPRESS CLOUDY    40  33  76 W14       30.07F
TOLEDO EXEC    CLOUDY    41  34  76 W18       30.08S
LIMA           CLOUDY    38  33  82 W15       30.12S
$$

OHZ009>014-019>023-028>033-038-089-021900-
   NORTHEAST OHIO

CITY           SKY/WX    TMP DP  RH WIND       PRES   REMARKS
CLE-HOPKINS    CLOUDY    41  31  67 W12       30.07S
CLE-LAKEFRONT  CLOUDY    41  33  73 W18       30.04S
CUY CO. ARPT   CLOUDY    41  36  81 W14       30.04R
LORAIN-ELYRIA  CLOUDY    39  30  70 W14G23    30.06S
ASHTABULA      MIX PCPN  37  35  92 W13       30.00S
AKRON-CANTON   CLOUDY    40  29  64 W16G22    30.05S
WOOSTER        NOT AVBL
MANSFIELD      CLOUDY    37  31  78 W12G22    30.07S
YOUNGSTOWN     CLOUDY    38  30  73 W12       30.02S
$$

OHZ042-051>053-060>062-070>072-077>081-021900-
  SOUTHWEST OHIO

CITY           SKY/WX    TMP DP  RH WIND       PRES   REMARKS
CINC-COVINGTON CLOUDY    39  30  70 W8        30.20F
CINC-LUNKEN    CLOUDY    40  32  73 SW10      30.22F
HAMILTON       CLOUDY    41  29  62 W6        30.21F
DAYTON         NOT AVBL
WRIGHT-PAT AFB NOT AVBL
DAYTON GENERAL CLOUDY    38  29  70 SW10      30.17F
WILMINGTON     CLOUDY    37  30  75 W15       30.17S
$$

OHZ036-037-039>041-045>050-054>059-063>069-073>076-082>088-021900-
  CENTRAL AND SOUTHEAST OHIO

CITY           SKY/WX    TMP DP  RH WIND       PRES   REMARKS
COLUMBUS       CLOUDY    38  32  79 W10       30.14S
OSU AIRPORT    LGT RAIN  38  33  82 W9        30.14R
BOLTON FIELD   CLOUDY    37  32  81 W12       30.15S
RICKENBACK AFB NOT AVBL
NEWARK         CLOUDY    39  30  70 W14       30.13S
MARION         CLOUDY    38  31  76 W13G21    30.11S
LANCASTER      CLOUDY    38  32  79 W12       30.15S
ZANESVILLE     CLOUDY    39  28  64 W12       30.13S
NEW PHILLY     CLOUDY    40  30  67 W10       30.09F
$$



USA.gov is the U.S. government's official web portal to all federal, state and local government web resources and services.